KLM34E EDDM-EHAM

Flight info

Callsign KLM34E
Flight time 1h 10m
Altitude 36000
Route GIVMI6S GIVMI Y101 IBAGA DCT MASEK DCT MAPOX DCT NORKU
Aircraft A20N/M-SDE2E3FGHIRWXY/LB1

Departure

Time 2026-05-07 18:10
Airport Munich Airport (EDDM)

Arrival

Time 2026-05-07 19:20
Airport Amsterdam Airport Schiphol (EHAM)
Time Latitude Longitude Altitude Speed Heading
2026-05-07 17:52 48.35498 11.79298 1485 ft 0 kts 263°
2026-05-07 17:59 48.35500 11.79319 1472 ft 2 kts 263°
2026-05-07 17:59 48.35502 11.79343 1480 ft 2 kts 263°
2026-05-07 18:00 48.35504 11.79367 1471 ft 2 kts 263°
2026-05-07 18:00 48.35506 11.79391 1471 ft 2 kts 263°
2026-05-07 18:00 48.35508 11.79415 1475 ft 2 kts 270°
2026-05-07 18:00 48.35501 11.79435 1471 ft 2 kts 344°
2026-05-07 18:01 48.35485 11.79442 1485 ft 2 kts 353°
2026-05-07 18:01 48.35484 11.79442 1485 ft 0 kts 354°
2026-05-07 18:02 48.35549 11.79469 1482 ft 18 kts 40°
2026-05-07 18:03 48.35622 11.79559 1477 ft 14 kts 16°
2026-05-07 18:03 48.35718 11.79541 1476 ft 15 kts 359°
2026-05-07 18:03 48.35831 11.79528 1483 ft 17 kts 352°
2026-05-07 18:03 48.35955 11.79502 1473 ft 19 kts 352°
2026-05-07 18:04 48.36078 11.79476 1485 ft 5 kts 352°
2026-05-07 18:04 48.36088 11.79474 1485 ft 3 kts 354°
2026-05-07 18:04 48.36124 11.79473 1476 ft 7 kts 356°
2026-05-07 18:04 48.36183 11.79473 1475 ft 10 kts 13°
2026-05-07 18:05 48.36221 11.79556 1485 ft 11 kts 79°
2026-05-07 18:05 48.36237 11.79686 1472 ft 14 kts 79°
2026-05-07 18:05 48.36251 11.79847 1479 ft 17 kts 84°
2026-05-07 18:05 48.36258 11.80016 1485 ft 18 kts 86°
2026-05-07 18:06 48.36271 11.80211 1485 ft 20 kts 80°
2026-05-07 18:06 48.36290 11.80427 1482 ft 22 kts 83°
2026-05-07 18:06 48.36307 11.80667 1478 ft 24 kts 84°
2026-05-07 18:06 48.36323 11.80897 1475 ft 23 kts 83°
2026-05-07 18:07 48.36342 11.81135 1480 ft 24 kts 83°
2026-05-07 18:07 48.36361 11.81390 1483 ft 25 kts 83°
2026-05-07 18:07 48.36382 11.81662 1475 ft 27 kts 84°
2026-05-07 18:07 48.36399 11.81860 1485 ft 15 kts 86°
2026-05-07 18:08 48.36431 11.81999 1482 ft 16 kts 19°
2026-05-07 18:08 48.36545 11.81988 1481 ft 16 kts 353°
2026-05-07 18:08 48.36641 11.81963 1482 ft 14 kts 339°
2026-05-07 18:08 48.36671 11.81868 1485 ft 7 kts 261°
2026-05-07 18:09 48.36669 11.81849 1481 ft 0 kts 262°
2026-05-07 18:09 48.36665 11.81805 1476 ft 29 kts 263°
2026-05-07 18:09 48.36602 11.81013 1482 ft 120 kts 262°
2026-05-07 18:09 48.36485 11.79417 1644 ft 173 kts 264°
2026-05-07 18:10 48.36368 11.77607 2550 ft 181 kts 265°
2026-05-07 18:10 48.36272 11.75727 3621 ft 180 kts 266°
2026-05-07 18:10 48.36134 11.73768 4295 ft 198 kts 260°
2026-05-07 18:10 48.35910 11.71586 4936 ft 223 kts 262°
2026-05-07 18:11 48.35752 11.69246 5916 ft 226 kts 272°
2026-05-07 18:11 48.35908 11.67672 6427 ft 226 kts 287°
2026-05-07 18:11 48.36919 11.64851 6896 ft 249 kts 301°
2026-05-07 18:11 48.37886 11.62573 7032 ft 263 kts 301°
2026-05-07 18:12 48.38860 11.60245 7051 ft 262 kts 300°
2026-05-07 18:12 48.39823 11.57910 7055 ft 263 kts 300°
2026-05-07 18:12 48.40999 11.55811 7049 ft 266 kts 321°
2026-05-07 18:12 48.42655 11.54503 7208 ft 272 kts 333°
2026-05-07 18:13 48.44395 11.53344 7960 ft 274 kts 333°
2026-05-07 18:13 48.46142 11.52202 9115 ft 275 kts 333°
2026-05-07 18:13 48.47918 11.51044 10114 ft 281 kts 333°
2026-05-07 18:13 48.49761 11.49839 10741 ft 300 kts 333°
2026-05-07 18:14 48.51753 11.48531 11146 ft 324 kts 333°
2026-05-07 18:14 48.53867 11.47147 11791 ft 335 kts 333°
2026-05-07 18:14 48.56020 11.45745 12711 ft 340 kts 334°
2026-05-07 18:14 48.58206 11.44319 13607 ft 344 kts 334°
2026-05-07 18:15 48.60396 11.42800 14432 ft 348 kts 331°
2026-05-07 18:15 48.62570 11.41178 15276 ft 350 kts 330°
2026-05-07 18:15 48.64755 11.39521 16097 ft 353 kts 330°
2026-05-07 18:15 48.66966 11.37849 16903 ft 357 kts 330°
2026-05-07 18:16 48.69201 11.36171 17702 ft 360 kts 330°
2026-05-07 18:16 48.71460 11.34482 18467 ft 364 kts 331°
2026-05-07 18:16 48.73741 11.32779 19157 ft 367 kts 331°
2026-05-07 18:16 48.76042 11.31062 19831 ft 370 kts 331°
2026-05-07 18:17 48.78364 11.29328 20515 ft 374 kts 331°
2026-05-07 18:17 48.80707 11.27575 21159 ft 378 kts 331°
2026-05-07 18:17 48.83072 11.25804 21808 ft 381 kts 331°
2026-05-07 18:17 48.85463 11.24012 22466 ft 385 kts 331°
2026-05-07 18:18 48.87875 11.22203 23096 ft 389 kts 331°
2026-05-07 18:18 48.90314 11.20371 23707 ft 393 kts 331°
2026-05-07 18:18 48.92778 11.18519 24239 ft 396 kts 331°
2026-05-07 18:18 48.95258 11.16653 24764 ft 399 kts 331°
2026-05-07 18:19 48.97756 11.14771 25276 ft 403 kts 331°
2026-05-07 18:19 49.00280 11.12868 25773 ft 406 kts 331°
2026-05-07 18:19 49.02812 11.10956 26273 ft 409 kts 331°
2026-05-07 18:19 49.05378 11.09017 26753 ft 412 kts 331°
2026-05-07 18:20 49.07957 11.07066 26997 ft 415 kts 331°
2026-05-07 18:20 49.10544 11.05106 27065 ft 415 kts 331°
2026-05-07 18:20 49.13131 11.03144 27059 ft 416 kts 331°
2026-05-07 18:20 49.15732 11.01168 27312 ft 419 kts 331°
2026-05-07 18:21 49.18343 10.99184 27865 ft 420 kts 331°
2026-05-07 18:21 49.20970 10.97184 28303 ft 423 kts 331°
2026-05-07 18:21 49.23609 10.95172 28727 ft 426 kts 331°
2026-05-07 18:21 49.26268 10.93143 29154 ft 428 kts 331°
2026-05-07 18:22 49.28943 10.91100 29563 ft 430 kts 331°
2026-05-07 18:22 49.30722 10.89739 29827 ft 432 kts 332°
2026-05-07 18:22 49.34338 10.86971 30175 ft 436 kts 332°
2026-05-07 18:22 49.37058 10.84885 30536 ft 438 kts 332°
2026-05-07 18:23 49.39792 10.82787 30860 ft 441 kts 332°
2026-05-07 18:23 49.42549 10.80668 31178 ft 444 kts 332°
2026-05-07 18:23 49.45310 10.78544 31582 ft 444 kts 332°
2026-05-07 18:23 49.48076 10.76413 31992 ft 445 kts 332°
2026-05-07 18:24 49.50839 10.74282 32426 ft 444 kts 331°
2026-05-07 18:24 49.53602 10.72148 32835 ft 444 kts 331°
2026-05-07 18:24 49.56364 10.70011 33241 ft 444 kts 331°
2026-05-07 18:24 49.59123 10.67874 33653 ft 444 kts 331°
2026-05-07 18:25 49.61879 10.65737 33979 ft 444 kts 331°
2026-05-07 18:25 49.67379 10.61464 34059 ft 442 kts 331°
2026-05-07 18:26 49.72865 10.57191 34055 ft 442 kts 331°
2026-05-07 18:26 49.78156 10.52380 34060 ft 441 kts 327°
2026-05-07 18:27 49.83390 10.47393 34140 ft 444 kts 327°
2026-05-07 18:27 49.86019 10.44887 34444 ft 444 kts 327°
2026-05-07 18:27 49.88646 10.42376 34729 ft 444 kts 327°
2026-05-07 18:27 49.90421 10.40675 34932 ft 444 kts 327°
2026-05-07 18:28 49.93905 10.37330 35305 ft 445 kts 326°
2026-05-07 18:28 49.96536 10.34800 35580 ft 445 kts 326°
2026-05-07 18:28 49.99171 10.32262 35850 ft 446 kts 326°
2026-05-07 18:28 50.01806 10.29720 36041 ft 446 kts 326°
2026-05-07 18:29 50.04436 10.27179 36063 ft 445 kts 326°
2026-05-07 18:29 50.09681 10.22102 36066 ft 444 kts 326°
2026-05-07 18:30 50.14928 10.17011 36069 ft 444 kts 326°
2026-05-07 18:30 50.20172 10.11910 36068 ft 444 kts 326°
2026-05-07 18:31 50.25413 10.06798 36070 ft 444 kts 326°
2026-05-07 18:31 50.30596 10.01551 36062 ft 442 kts 319°
2026-05-07 18:32 50.35032 9.94922 36063 ft 440 kts 313°
2026-05-07 18:32 50.39361 9.88127 36062 ft 441 kts 314°
2026-05-07 18:33 50.43763 9.81433 36067 ft 441 kts 315°
2026-05-07 18:33 50.48186 9.74760 36065 ft 441 kts 315°
2026-05-07 18:34 50.52611 9.68070 36069 ft 442 kts 315°
2026-05-07 18:34 50.57034 9.61360 36073 ft 442 kts 315°
2026-05-07 18:35 50.61455 9.54633 36076 ft 442 kts 314°
2026-05-07 18:35 50.65877 9.47887 36080 ft 442 kts 314°
2026-05-07 18:36 50.70295 9.41127 36078 ft 443 kts 314°
2026-05-07 18:36 50.74710 9.34354 36081 ft 443 kts 314°
2026-05-07 18:37 50.78406 9.28670 36085 ft 443 kts 314°
2026-05-07 18:37 50.82814 9.21872 36092 ft 443 kts 314°
2026-05-07 18:38 50.87220 9.15059 36095 ft 443 kts 314°
2026-05-07 18:38 50.91591 9.08282 36098 ft 443 kts 314°
2026-05-07 18:39 50.96016 9.01402 36097 ft 442 kts 314°
2026-05-07 18:39 51.00403 8.94561 36097 ft 442 kts 314°
2026-05-07 18:40 51.04789 8.87702 36093 ft 442 kts 314°
2026-05-07 18:40 51.09157 8.80851 36090 ft 442 kts 314°
2026-05-07 18:41 51.13536 8.73966 36081 ft 442 kts 314°
2026-05-07 18:41 51.17904 8.67077 36085 ft 442 kts 314°
2026-05-07 18:42 51.22263 8.60184 36087 ft 442 kts 314°
2026-05-07 18:42 51.26622 8.53271 36089 ft 441 kts 314°
2026-05-07 18:43 51.30973 8.46352 36089 ft 441 kts 314°
2026-05-07 18:43 51.35321 8.39418 36090 ft 442 kts 314°
2026-05-07 18:44 51.39667 8.32467 36092 ft 442 kts 314°
2026-05-07 18:44 51.44013 8.25496 36094 ft 442 kts 314°
2026-05-07 18:45 51.48356 8.18511 36092 ft 442 kts 313°
2026-05-07 18:45 51.52697 8.11509 36095 ft 442 kts 313°
2026-05-07 18:46 51.57036 8.04491 36085 ft 443 kts 313°
2026-05-07 18:46 51.61371 7.97457 36086 ft 443 kts 313°
2026-05-07 18:47 51.65706 7.90405 36057 ft 444 kts 313°
2026-05-07 18:47 51.67876 7.86866 35846 ft 443 kts 313°
2026-05-07 18:47 51.70038 7.83334 35600 ft 442 kts 313°
2026-05-07 18:47 51.72200 7.79798 35353 ft 442 kts 313°
2026-05-07 18:48 51.74359 7.76263 35116 ft 443 kts 313°
2026-05-07 18:48 51.76519 7.72720 34877 ft 443 kts 313°
2026-05-07 18:48 51.78677 7.69176 34644 ft 443 kts 313°
2026-05-07 18:48 51.80833 7.65629 34414 ft 443 kts 313°
2026-05-07 18:49 51.82992 7.62073 34180 ft 443 kts 313°
2026-05-07 18:49 51.85148 7.58515 34006 ft 440 kts 313°
2026-05-07 18:49 51.87260 7.55030 33894 ft 428 kts 313°
2026-05-07 18:49 51.89314 7.51633 33760 ft 415 kts 313°
2026-05-07 18:50 51.91303 7.48340 33623 ft 402 kts 313°
2026-05-07 18:50 51.93221 7.45158 33504 ft 388 kts 313°
2026-05-07 18:50 51.95078 7.42074 33360 ft 375 kts 313°
2026-05-07 18:50 51.96866 7.39099 33254 ft 362 kts 313°
2026-05-07 18:51 51.98597 7.36217 33049 ft 352 kts 313°
2026-05-07 18:51 52.00277 7.33385 32750 ft 347 kts 308°
2026-05-07 18:51 52.01560 7.30114 32289 ft 343 kts 295°
2026-05-07 18:51 52.02574 7.26624 31862 ft 340 kts 292°
2026-05-07 18:52 52.03542 7.23124 31254 ft 343 kts 292°
2026-05-07 18:52 52.04544 7.19557 30447 ft 352 kts 293°
2026-05-07 18:52 52.05594 7.15908 29495 ft 362 kts 294°
2026-05-07 18:52 52.06687 7.12172 28580 ft 370 kts 294°
2026-05-07 18:53 52.07798 7.08405 28012 ft 368 kts 294°
2026-05-07 18:53 52.08900 7.04675 27531 ft 364 kts 294°
2026-05-07 18:53 52.09992 7.00975 27010 ft 361 kts 294°
2026-05-07 18:53 52.11074 6.97298 26525 ft 359 kts 294°
2026-05-07 18:54 52.12146 6.93652 26041 ft 356 kts 294°
2026-05-07 18:54 52.13210 6.90021 25555 ft 354 kts 294°
2026-05-07 18:54 52.14265 6.86418 25095 ft 351 kts 294°
2026-05-07 18:54 52.15311 6.82837 24628 ft 349 kts 294°
2026-05-07 18:55 52.16350 6.79277 24172 ft 347 kts 294°
2026-05-07 18:55 52.17381 6.75737 23738 ft 345 kts 294°
2026-05-07 18:55 52.18404 6.72218 23230 ft 343 kts 294°
2026-05-07 18:55 52.19420 6.68720 22718 ft 340 kts 294°
2026-05-07 18:56 52.20428 6.65245 22217 ft 338 kts 294°
2026-05-07 18:56 52.21429 6.61789 21731 ft 336 kts 294°
2026-05-07 18:56 52.22423 6.58354 21241 ft 334 kts 294°
2026-05-07 18:56 52.23411 6.54933 20785 ft 332 kts 294°
2026-05-07 18:57 52.24392 6.51530 20328 ft 331 kts 294°
2026-05-07 18:57 52.25367 6.48143 19878 ft 329 kts 294°
2026-05-07 18:57 52.26336 6.44777 19451 ft 327 kts 294°
2026-05-07 18:57 52.27297 6.41430 19015 ft 325 kts 294°
2026-05-07 18:58 52.28253 6.38096 18594 ft 323 kts 294°
2026-05-07 18:58 52.29204 6.34778 18153 ft 321 kts 294°
2026-05-07 18:58 52.30145 6.31485 17706 ft 319 kts 294°
2026-05-07 18:58 52.31081 6.28209 17244 ft 317 kts 294°
2026-05-07 18:59 52.32007 6.24960 16810 ft 314 kts 294°
2026-05-07 18:59 52.32928 6.21730 16380 ft 312 kts 294°
2026-05-07 18:59 52.33840 6.18520 15954 ft 310 kts 294°
2026-05-07 18:59 52.34746 6.15330 15533 ft 308 kts 294°
2026-05-07 19:00 52.35645 6.12163 15123 ft 306 kts 294°
2026-05-07 19:00 52.36537 6.09012 14713 ft 304 kts 294°
2026-05-07 19:00 52.37423 6.05882 14328 ft 302 kts 294°
2026-05-07 19:00 52.38302 6.02768 13916 ft 301 kts 294°
2026-05-07 19:01 52.39175 5.99676 13484 ft 298 kts 294°
2026-05-07 19:01 52.40040 5.96602 13053 ft 296 kts 294°
2026-05-07 19:01 52.40897 5.93556 12636 ft 294 kts 294°
2026-05-07 19:01 52.41748 5.90529 12228 ft 291 kts 294°
2026-05-07 19:02 52.42593 5.87518 11812 ft 290 kts 294°
2026-05-07 19:02 52.43429 5.84535 11417 ft 287 kts 294°
2026-05-07 19:02 52.44260 5.81568 11024 ft 285 kts 294°
2026-05-07 19:02 52.45084 5.78620 10629 ft 283 kts 294°
2026-05-07 19:03 52.45902 5.75691 10254 ft 281 kts 294°
2026-05-07 19:03 52.46703 5.72819 10111 ft 275 kts 294°
2026-05-07 19:03 52.47509 5.69928 10079 ft 282 kts 294°
2026-05-07 19:03 52.48324 5.67000 10072 ft 282 kts 294°
2026-05-07 19:04 52.49135 5.64082 10075 ft 281 kts 294°
2026-05-07 19:04 52.49947 5.61157 10075 ft 282 kts 294°
2026-05-07 19:04 52.50538 5.58103 10075 ft 281 kts 275°
2026-05-07 19:04 52.50316 5.54939 10073 ft 282 kts 250°
2026-05-07 19:05 52.49390 5.52114 10064 ft 282 kts 239°
2026-05-07 19:05 52.48371 5.49374 9895 ft 280 kts 239°
2026-05-07 19:05 52.47357 5.46651 9532 ft 280 kts 239°
2026-05-07 19:05 52.46348 5.43931 9117 ft 279 kts 239°
2026-05-07 19:06 52.45348 5.41225 8707 ft 277 kts 239°
2026-05-07 19:06 52.43367 5.35853 7886 ft 274 kts 238°
2026-05-07 19:06 52.42417 5.33281 7498 ft 272 kts 238°
2026-05-07 19:07 52.41441 5.30638 7119 ft 270 kts 238°
2026-05-07 19:07 52.40470 5.28015 7075 ft 267 kts 238°
2026-05-07 19:07 52.39486 5.25364 6948 ft 274 kts 238°
2026-05-07 19:07 52.38503 5.22717 6706 ft 269 kts 238°
2026-05-07 19:08 52.37544 5.20135 6447 ft 263 kts 237°
2026-05-07 19:08 52.36617 5.17641 6188 ft 257 kts 237°
2026-05-07 19:08 52.35701 5.15179 5927 ft 251 kts 237°
2026-05-07 19:08 52.34800 5.12759 5662 ft 247 kts 237°
2026-05-07 19:09 52.33914 5.10380 5407 ft 245 kts 237°
2026-05-07 19:09 52.33020 5.07988 5147 ft 247 kts 237°
2026-05-07 19:09 52.32128 5.05604 4898 ft 244 kts 237°
2026-05-07 19:09 52.31237 5.03235 4634 ft 246 kts 237°
2026-05-07 19:10 52.30345 5.00858 4362 ft 245 kts 237°
2026-05-07 19:10 52.29454 4.98496 4130 ft 244 kts 237°
2026-05-07 19:10 52.28564 4.96132 4073 ft 244 kts 237°
2026-05-07 19:10 52.27669 4.93759 3930 ft 246 kts 237°
2026-05-07 19:11 52.26773 4.91394 3664 ft 245 kts 237°
2026-05-07 19:11 52.25877 4.89036 3428 ft 243 kts 237°
2026-05-07 19:11 52.24983 4.86687 3169 ft 245 kts 237°
2026-05-07 19:11 52.24089 4.84341 3001 ft 242 kts 237°
2026-05-07 19:12 52.23196 4.82005 3001 ft 244 kts 237°
2026-05-07 19:12 52.22293 4.79647 3002 ft 245 kts 237°
2026-05-07 19:12 52.21396 4.77294 2999 ft 244 kts 237°
2026-05-07 19:12 52.20500 4.74943 3002 ft 244 kts 237°
2026-05-07 19:13 52.19604 4.72598 3000 ft 244 kts 237°
2026-05-07 19:13 52.18707 4.70253 3002 ft 242 kts 237°
2026-05-07 19:13 52.17839 4.67975 2998 ft 230 kts 237°
2026-05-07 19:13 52.17025 4.65821 2996 ft 218 kts 237°
2026-05-07 19:14 52.16211 4.63674 2997 ft 225 kts 237°
2026-05-07 19:14 52.15392 4.61513 3004 ft 224 kts 237°
2026-05-07 19:14 52.14782 4.59224 3003 ft 217 kts 263°
2026-05-07 19:14 52.15000 4.56919 2993 ft 200 kts 300°
2026-05-07 19:15 52.15920 4.55424 3011 ft 184 kts 330°
2026-05-07 19:15 52.17069 4.54364 2876 ft 192 kts 332°
2026-05-07 19:15 52.17848 4.53649 2719 ft 189 kts 332°
2026-05-07 19:15 52.19456 4.52828 2554 ft 184 kts
2026-05-07 19:16 52.20281 4.53186 2501 ft 181 kts 28°
2026-05-07 19:16 52.21275 4.54405 2422 ft 179 kts 48°
2026-05-07 19:16 52.22047 4.55985 2354 ft 179 kts 56°
2026-05-07 19:16 52.22728 4.57672 2249 ft 178 kts 59°
2026-05-07 19:17 52.23388 4.59382 2047 ft 177 kts 59°
2026-05-07 19:17 52.24028 4.61041 1837 ft 168 kts 59°
2026-05-07 19:17 52.24627 4.62595 1610 ft 155 kts 58°
2026-05-07 19:17 52.25164 4.63989 1403 ft 136 kts 58°
2026-05-07 19:18 52.25638 4.65222 1222 ft 121 kts 58°
2026-05-07 19:18 52.26085 4.66385 1073 ft 125 kts 57°
2026-05-07 19:18 52.26536 4.67558 896 ft 119 kts 58°
2026-05-07 19:18 52.26981 4.68717 736 ft 120 kts 58°
2026-05-07 19:19 52.27422 4.69880 573 ft 120 kts 58°
2026-05-07 19:19 52.27862 4.71038 416 ft 119 kts 55°
2026-05-07 19:19 52.28301 4.72180 297 ft 122 kts 52°
2026-05-07 19:19 52.28782 4.73357 84 ft 123 kts 58°
2026-05-07 19:20 52.29214 4.74485 0 ft 101 kts 59°
2026-05-07 19:20 52.29476 4.75171 -3 ft 39 kts 58°
2026-05-07 19:20 52.29605 4.75350 -1 ft 20 kts 356°
2026-05-07 19:20 52.29674 4.75307 -1 ft 0 kts 334°
2026-05-07 19:21 52.29724 4.75297 -1 ft 19 kts 15°
2026-05-07 19:21 52.29795 4.75468 -1 ft 20 kts 64°
2026-05-07 19:22 52.29873 4.75677 -1 ft 23 kts 57°
2026-05-07 19:22 52.29961 4.75903 -1 ft 25 kts 58°
2026-05-07 19:22 52.30048 4.76135 -1 ft 23 kts 59°
2026-05-07 19:22 52.30136 4.76368 -1 ft 25 kts 56°
2026-05-07 19:23 52.30229 4.76601 -1 ft 22 kts 60°
2026-05-07 19:23 52.30307 4.76732 -1 ft 12 kts 352°
2026-05-07 19:23 52.30352 4.76626 -1 ft 13 kts 281°
2026-05-07 19:23 52.30415 4.76531 -1 ft 11 kts 328°
2026-05-07 19:24 52.30458 4.76544 -1 ft 8 kts 57°
2026-05-07 19:24 52.30467 4.76566 -1 ft 0 kts 54°